Content
SEND FEEDBACK

Daily
Averages
Monthly
Summary
United States of America

WILMINGTON, NORTH CAROLINA


Home > North America > United States > North Carolina
Elevation: 72 feet     Latitude: 34 16N     Longitude: 077 54W

WEATHER
 
SELECT A DAY
Number of Records: 208,807;   Date Range: 1/1/95 - 7/29/14
 
SHARE

PRINT THIS DATA

[ ← Previous Day ]
WEATHER ALMANAC - MAY 23, 2013
[ Next Day → ]
[ °C ]   °F
Weather ElementAverageHighLow
Temperature74.7 °F81 °F (1:53 pm)69.8 °F (6:27 am)
Dewpoint68.8 °F70 °F (2:53 am)66 °F (11:53 am)
Humidity82.5 %100 % (7:00 am)64 % (11:53 am)
Barometer29.93 in29.98 in (1:53 am)29.85 in (4:28 pm)
Wind Speed5.7 mph13.8 mph (4:53 pm)
Wind Gust19.6 mph (4:53 pm)
Weather ElementAverage
Visibility9.8 mi
Wind DirectionSSE (164 °)

Weather ElementTotal
Precipitation0.13 in
Cooling Degree Days10.4 (Base 65)
Growing Degree Days25.4 (Base 50)
Averaged from 42 records on May 23, 2013
WEATHER CONDITIONS BREAKOUT
WIND DIRECTION BREAKOUT
WEATHER BY HOUR - MAY 23, 2013
[ °C ]   °F
Local TimeTemperatureDewpointHumidityBarometerVisibilityWind DirectionWind SpeedGust SpeedPrecipitationEventsConditions
1:53 AM73.0 °F69.1 °F87 %29.98 in10.0 miSSE (150°)4.6 mphClear
2:45 AM71.6 °F69.8 °F94 %29.97 in10.0 miSouth (170°)4.6 mphMostly Cloudy
2:53 AM73.0 °F70.0 °F90 %29.97 in8.0 miSouth (170°)3.5 mphMostly Cloudy
3:21 AM71.6 °F69.8 °F94 %29.96 in10.0 miSouth (180°)8.1 mph0.00 inMostly Cloudy
3:28 AM71.6 °F69.8 °F94 %29.96 in10.0 miSouth (190°)8.1 mph0.00 inScattered Clouds
3:53 AM72.0 °F69.1 °F91 %29.97 in7.0 miSouth (180°)11.5 mph0.00 inRainLight Rain
4:53 AM70.0 °F68.0 °F93 %29.96 in8.0 miSouth (180°)5.8 mph0.05 inRainLight Rain
5:53 AM70.0 °F68.0 °F93 %29.97 in10.0 miSSW (200°)6.9 mph0.07 inRainLight Rain
6:27 AM69.8 °F68.0 °F94 %29.97 in10.0 miSouth (190°)4.6 mph0.00 inOvercast
6:53 AM70.0 °F68.0 °F93 %29.97 in10.0 miSW (230°)3.5 mph0.01 inMostly Cloudy
7:00 AM69.8 °F69.8 °F100 %29.98 in10.0 miWSW (240°)3.5 mphOvercast
7:14 AM71.6 °F69.8 °F94 %29.98 in10.0 miSSW (200°)3.5 mphMostly Cloudy
7:53 AM71.1 °F69.1 °F93 %29.98 in10.0 miSSW (200°)4.6 mphMostly Cloudy
8:53 AM73.9 °F70.0 °F87 %29.98 in10.0 miSSW (200°)5.8 mphMostly Cloudy
9:14 AM75.2 °F69.8 °F83 %29.97 in10.0 miSSW (200°)5.8 mphOvercast
9:21 AM75.2 °F69.8 °F83 %29.97 in10.0 miSW (220°)6.9 mphOvercast
9:28 AM73.4 °F69.8 °F88 %29.97 in10.0 miSW (220°)5.8 mphMostly Cloudy
9:53 AM73.9 °F69.1 °F85 %29.96 in10.0 miSW (230°)5.8 mphScattered Clouds
10:33 AM75.2 °F69.8 °F83 %29.95 in10.0 miCalmMostly Cloudy
10:42 AM75.2 °F68.0 °F78 %29.95 in10.0 miCalmMostly Cloudy
10:50 AM78.8 °F68.0 °F69 %29.95 in10.0 miVariable3.5 mphScattered Clouds
10:53 AM78.1 °F66.9 °F68 %29.96 in10.0 miWSW (250°)4.6 mphScattered Clouds
11:53 AM79.0 °F66.0 °F64 %29.94 in10.0 miCalmPartly Cloudy
12:53 PM80.1 °F69.1 °F69 %29.92 in10.0 miSSE (160°)4.6 mphScattered Clouds
1:31 PM80.6 °F69.8 °F70 %29.91 in10.0 miSE (140°)10.4 mphMostly Cloudy
1:39 PM80.6 °F68.0 °F65 %29.91 in10.0 miESE (120°)10.4 mphMostly Cloudy
1:53 PM81.0 °F68.0 °F65 %29.91 in10.0 miESE (120°)10.4 mphMostly Cloudy
2:53 PM78.1 °F66.9 °F68 %29.88 in10.0 miSSE (160°)8.1 mph0.00 inRainLight Rain
3:34 PM73.4 °F68.0 °F83 %29.89 in10.0 miSSW (210°)5.8 mph0.00 inOvercast
3:53 PM75.9 °F69.1 °F79 %29.88 in10.0 miCalm0.00 inRainLight Rain
4:00 PM78.8 °F69.8 °F74 %29.88 in10.0 miWSW (240°)3.5 mph0.00 inMostly Cloudy
4:28 PM80.6 °F68.0 °F65 %29.85 in10.0 miSouth (190°)11.5 mph0.00 inMostly Cloudy
4:53 PM78.1 °F66.9 °F68 %29.86 in10.0 miSouth (190°)13.8 mph19.6 mph0.00 inPartly Cloudy
5:53 PM77.0 °F68.0 °F74 %29.86 in10.0 miSSW (210°)9.2 mph0.00 inScattered Clouds
6:53 PM77.0 °F68.0 °F74 %29.88 in10.0 miSW (220°)12.7 mphMostly Cloudy
7:53 PM75.0 °F68.0 °F79 %29.87 in10.0 miSSW (210°)6.9 mphMostly Cloudy
8:53 PM73.9 °F68.0 °F82 %29.88 in10.0 miSSW (210°)5.8 mphClear
9:53 PM72.0 °F69.1 °F91 %29.87 in10.0 miSouth (180°)4.6 mphClear
10:40 PM73.4 °F69.8 °F88 %29.87 in10.0 miSSW (210°)3.5 mphMostly Cloudy
10:53 PM73.0 °F70.0 °F90 %29.86 in10.0 miSSE (160°)4.6 mphMostly Cloudy
10:57 PM73.4 °F69.8 °F88 %29.86 in10.0 miSSE (160°)4.6 mphScattered Clouds
11:53 PM72.0 °F70.0 °F93 %29.86 in10.0 miCalmPartly Cloudy
Hourly data recorded from KILM, located miles away from Wilmington, North Carolina







STORIES FROM OUR PARTNERS